FW1901 Weather Reports


time (UTC)temp
C
wind
direction
speed
KPH
gust
KPH
rain 1hr
cm
rain 24hr
cm
rain mn
cm
humidity
%
barometer
mb
20260504011604 14 219 4.8 16.1 0.00 0.00 0.00 58 1009.1
20260504011105 14 204 3.2 9.7 0.00 0.00 0.00 57 1009.1
20260504010606 14 208 4.8 14.5 0.00 0.00 0.00 57 1009.1
20260504010105 14 223 3.2 14.5 0.00 0.00 0.00 57 1009.1
20260504004605 14 223 3.2 12.9 0.00 0.00 0.00 56 1009.1
20260504004103 15 288 4.8 14.5 0.00 0.00 0.00 56 1009.2
20260504003104 15 235 8.0 16.1 0.00 0.00 0.00 56 1009.2
20260504001605 15 164 8.0 19.3 0.00 0.00 0.00 56 1009.2
20260504001103 15 244 4.8 12.9 0.00 0.00 0.00 56 1009.3
20260504000104 15 245 6.4 20.9 0.00 0.00 0.00 56 1009.3
20260503234604 15 198 3.2 14.5 0.00 0.00 0.00 55 1009.3
20260503234104 15 217 4.8 14.5 0.00 0.00 0.00 55 1009.3
20260503233604 15 291 3.2 12.9 0.00 0.00 0.00 56 1009.3
20260503233104 15 249 3.2 11.3 0.00 0.00 0.00 55 1009.3
20260503231604 15 241 4.8 16.1 0.00 0.00 0.00 54 1009.6
20260503230104 15 176 6.4 19.3 0.00 0.00 0.00 53 1009.6
20260503224604 15 235 4.8 16.1 0.00 0.00 0.00 51 1009.6
20260503224103 15 177 8.0 20.9 0.00 0.00 0.00 52 1009.6
20260503223104 15 219 3.2 24.1 0.00 0.00 0.00 52 1009.7
20260503221103 15 222 8.0 27.4 0.00 0.00 0.00 50 1009.7
20260503220604 15 230 9.7 22.5 0.00 0.00 0.00 50 1009.4
20260503220104 16 251 9.7 24.1 0.00 0.00 0.00 50 1009.7
20260503214604 16 243 8.0 25.7 0.00 0.00 0.00 50 1010.1
20260503214104 16 254 14.5 27.4 0.00 0.00 0.00 49 1010.0
20260503213104 16 245 9.7 24.1 0.00 0.00 0.00 50 1010.3
20260503211603 16 227 8.0 19.3 0.00 0.00 0.00 47 1010.4
20260503211104 16 233 8.0 25.7 0.00 0.00 0.00 50 1010.3
20260503210603 16 207 9.7 25.7 0.00 0.00 0.00 50 1010.5
20260503210103 15 203 9.7 20.9 0.00 0.00 0.00 50 1010.6
20260503203603 16 266 11.3 25.7 0.00 0.00 0.00 47 1011.1
20260503203104 16 264 4.8 29.0 0.00 0.00 0.00 48 1011.2
20260503201603 16 260 8.0 27.4 0.00 0.00 0.00 49 1011.8
20260503201104 16 244 11.3 27.4 0.00 0.00 0.00 49 1012.1
20260503200603 16 207 11.3 24.1 0.00 0.00 0.00 48 1012.3
20260503200104 16 213 6.4 20.9 0.00 0.00 0.00 47 1012.3
20260503194604 16 152 11.3 29.0 0.00 0.00 0.00 47 1012.7
20260503193603 16 254 3.2 19.3 0.00 0.00 0.00 49 1012.9
20260503193103 15 237 4.8 19.3 0.00 0.00 0.00 48 1013.1
20260503191603 15 255 8.0 20.9 0.00 0.00 0.00 48 1013.7
20260503191104 16 290 4.8 25.7 0.00 0.00 0.00 48 1013.5
20260503190603 16 268 8.0 25.7 0.00 0.00 0.00 50 1013.2
20260503190104 16 238 6.4 20.9 0.00 0.00 0.00 47 1013.3
20260503184603 16 234 4.8 24.1 0.00 0.00 0.00 47 1013.3
20260503183603 16 227 9.7 22.5 0.00 0.00 0.00 49 1013.3
20260503183103 16 235 6.4 22.5 0.00 0.00 0.00 49 1013.3
20260503181603 15 269 6.4 19.3 0.00 0.00 0.00 49 1013.9
20260503181103 16 272 8.0 19.3 0.00 0.00 0.00 46 1014.1
20260503180603 16 245 8.0 22.5 0.00 0.00 0.00 47 1014.2
20260503180103 16 256 8.0 27.4 0.00 0.00 0.00 49 1014.3
20260503174603 15 246 8.0 19.3 0.00 0.00 0.00 49 1014.7
20260503173603 15 238 8.0 22.5 0.00 0.00 0.00 49 1015.0
20260503173103 15 246 8.0 22.5 0.00 0.00 0.00 49 1014.9
20260503171603 14 263 9.7 20.9 0.00 0.00 0.00 49 1015.3
20260503171103 14 282 4.8 22.5 0.00 0.00 0.00 50 1015.3
20260503170103 15 241 14.5 27.4 0.00 0.00 0.00 47 1015.5
20260503160104 15 216 8.0 32.2 0.00 0.00 0.00 49 1016.1
20260503150605 13 257 8.0 19.3 0.00 0.00 0.00 49 1016.6
20260503150104 13 173 6.4 29.0 0.00 0.00 0.00 49 1016.6
20260503140103 11 219 6.4 16.1 0.00 0.00 0.00 55 1017.0
20260503131103 8 219 6.4 19.3 0.00 0.00 0.00 63 1017.0
20260503130603 8 219 4.8 20.9 0.00 0.00 0.00 62 1017.1
20260503120104 5 219 3.2 9.7 0.00 0.00 0.00 72 1016.9
20260503110603 3 3 0.0 0.0 0.00 0.00 0.00 75 1016.4
20260503081602 3 3 0.0 0.0 0.00 0.03 0.00 77 1016.3
20260503081103 3 3 0.0 0.0 0.00 0.03 0.00 77 1016.3
20260503080602 3 3 0.0 0.0 0.00 0.03 0.00 77 1016.3
20260503080103 3 3 0.0 0.0 0.00 0.03 0.00 77 1016.3
20260503054603 2 3 0.0 0.0 0.00 0.03 0.00 85 1016.8
20260503054102 2 3 0.0 0.0 0.00 0.03 0.00 85 1016.8
20260503053603 2 3 0.0 0.0 0.00 0.03 0.00 85 1016.9
20260503053103 2 3 0.0 0.0 0.00 0.03 0.00 85 1016.9
20260503051603 2 3 0.0 0.0 0.00 0.03 0.00 85 1017.0
20260503051103 2 3 0.0 0.0 0.00 0.03 0.00 85 1016.9
20260503050602 2 5 0.0 0.0 0.00 0.03 0.00 85 1017.0
20260503044602 2 312 0.0 0.0 0.00 0.03 0.00 85 1017.0
20260503044102 2 312 0.0 0.0 0.00 0.03 0.00 85 1017.0
20260503043602 2 312 0.0 0.0 0.00 0.03 0.00 85 1017.0
20260503043103 2 312 0.0 0.0 0.00 0.03 0.00 85 1017.0
20260503041602 2 312 0.0 1.6 0.00 0.03 0.00 85 1017.1
20260503041103 2 312 0.0 0.0 0.00 0.03 0.00 85 1017.1
20260503040603 2 312 0.0 0.0 0.00 0.03 0.00 85 1017.0
20260503034603 3 312 0.0 0.0 0.00 0.03 0.03 84 1017.0
20260503034102 3 312 0.0 0.0 0.00 0.03 0.03 84 1017.0
20260503033103 3 312 0.0 0.0 0.00 0.03 0.03 83 1017.0
20260503031602 3 312 0.0 0.0 0.00 0.03 0.03 83 1017.1
20260503031102 3 312 0.0 1.6 0.00 0.03 0.03 82 1017.1
20260503030602 3 312 0.0 1.6 0.00 0.03 0.03 81 1017.1
20260503024603 4 312 0.0 0.0 0.00 0.03 0.03 80 1017.1
20260503024103 4 312 0.0 0.0 0.00 0.03 0.03 80 1017.1
20260503023602 5 312 0.0 0.0 0.00 0.03 0.03 79 1017.1
20260503023102 5 312 0.0 0.0 0.00 0.03 0.03 79 1017.1
20260503021102 5 312 0.0 0.0 0.00 0.03 0.03 77 1016.9
20260503020602 5 312 0.0 0.0 0.00 0.03 0.03 75 1016.9
20260503020104 5 312 0.0 0.0 0.00 0.03 0.03 75 1016.8
20260503014603 6 312 0.0 0.0 0.00 0.03 0.03 72 1016.6
20260503014102 6 312 0.0 0.0 0.00 0.03 0.03 71 1016.6
20260503013601 6 312 0.0 1.6 0.00 0.03 0.03 69 1016.6
20260503013103 6 312 0.0 1.6 0.00 0.03 0.03 69 1016.5